This is the latest recevied weather packets stored in our database for station/object W8RSN-13. If no packets are shown the sender has not sent any weather packets the latest 10 day(s).
| Time | Temp. | Humidity | Pressure | Rain* | Wind** | Luminosity | Snow |
|---|---|---|---|---|---|---|---|
| 1787475515 | 23.89° C | 49% | 1014.6 hPa | - | - | - | - |
| 1787475214 | 23.89° C | 49% | 1014.9 hPa | - | - | - | - |
| 1787474913 | 24.44° C | 49% | 1015 hPa | - | - | - | - |
| 1787474611 | 24.44° C | 49% | 1015 hPa | - | - | - | - |
| 1787474311 | 25° C | 47% | 1014.9 hPa | - | - | - | - |
| 1787474010 | 25° C | 47% | 1015 hPa | - | - | - | - |
| 1787473709 | 25° C | 47% | 1015.1 hPa | - | - | - | - |
| 1787473408 | 24.44° C | 47% | 1015.3 hPa | - | - | - | - |
| 1787473107 | 25° C | 46% | 1015.2 hPa | - | - | - | - |
| 1787472807 | 25° C | 46% | 1015.3 hPa | - | - | - | - |
| 1787472505 | 25° C | 45% | 1015.4 hPa | - | - | - | - |
| 1787472204 | 25° C | 43% | 1015.2 hPa | - | - | - | - |
| 1787471903 | 25° C | 43% | 1015.3 hPa | - | - | - | - |
| 1787471603 | 24.44° C | 46% | 1015.5 hPa | - | - | - | - |
| 1787471302 | 23.89° C | 47% | 1015.6 hPa | - | - | - | - |
| 1787471001 | 24.44° C | 49% | 1015.5 hPa | - | - | - | - |
| 1787470700 | 24.44° C | 47% | 1015.5 hPa | - | - | - | - |
| 1787470399 | 25° C | 46% | 1015.3 hPa | - | - | - | - |
| 1787470098 | 25° C | 46% | 1015.2 hPa | - | - | - | - |
| 1787469797 | 25° C | 47% | 1015.5 hPa | - | - | - | - |
| 1787469496 | 25° C | 48% | 1015.2 hPa | - | - | - | - |
| 1787469215 | 25° C | 47% | 1015.1 hPa | - | - | - | - |
| 1787468914 | 25.56° C | 47% | 1015.4 hPa | - | - | - | - |
| 1787468614 | 25.56° C | 46% | 1015.1 hPa | - | - | - | - |
| 1787468312 | 25.56° C | 43% | 1015.4 hPa | - | - | - | - |
* Rain since midnight (hover to see other rain measurements)
** Current wind speed in m/s (hover to see current wind gust speed)